Location: ???????
(55.3754°N, 39.3545°E)
Time: 10:54:29
(UTC+00:00)

ATLAS 3B R/B - Pass Details

Date: 14 April 2026
Orbit: 937 x 1257 km, 63.8° (Epoch: 10 May)

Event Time Altitude Azimuth Distance (km) Brightness Sun altitude
Rises 21:41:42 0° 304° (NW) 4,216 6.2 -24.8°
Reaches altitude 10° 21:44:33 10° 307° (NW) 3,247 5.6 -24.8°
Maximum altitude 21:52:26 68° 30° (NNE) 1,326 3.3 -24.7°
Drops below altitude 10° 22:00:00 10° 114° (ESE) 3,119 5.0 -24.5°
Sets 22:02:41 0° 117° (ESE) 4,041 5.6 -24.4°
